"startDT [UTC]","vpos","CH4 [ppm]","stdev(CH4) [ppm]","CO2 [ppm]","stdev(CO2) [ppm]","H2O_reported [%]","stdev(H2O_reported)","CavityPressure [torr]","CavityTemp [C]","OutletValve","CH4_dry [ppm]","CO2_dry [ppm]","DasTemp [C]","EtalonTemp [C]","WarmBoxTemp [C]","MPVPosition","T_ECpre [C]","T_EC1 [C]","T_EC2 [C]","p_inlet [hPa]","p_in [hPa]","p_out [hPa]","T_inlet [C]","RH_inlet [%]","dwpt_inlet [C]","T_vent [C]","RH_vent [%]","dwpt_vent [C]","flow_vent [l min-1]","flow_inlet [l min-1]","dwpt_sample [C]","T_room [C]"
2015-11-13 00:00:00,0.0,1.95669,0.00184,403.116,0.047,0.1260,0.0017,140.000,45.000,31619.83955,1.95905,403.728,32.625,45.070,45.000,0.00,0.09,-272.74,-272.80,-4,520,-950,17.7,4.8,-22.8,17.9,4.9,-22.5,5.73,2.11,-10.9,24.2
2015-11-13 00:01:00,0.0,1.96288,0.00184,403.244,0.049,0.1259,0.0020,139.997,45.000,31620.99300,1.96525,403.855,32.625,45.070,45.000,0.00,0.09,-272.74,-272.79,-3,519,-950,17.8,4.8,-22.8,18.0,4.9,-22.5,5.73,2.05,-10.9,24.2
2015-11-13 00:02:00,0.0,1.96410,0.00269,403.282,0.070,0.1258,0.0020,139.999,44.999,31621.75973,1.96667,403.895,32.625,45.070,45.000,0.00,0.09,-272.74,-272.80,-4,520,-950,17.8,4.8,-22.8,18.0,4.9,-22.5,5.73,1.90,-10.9,24.2
2015-11-13 00:03:00,0.0,1.95845,0.00239,403.152,0.073,0.1257,0.0022,139.998,45.000,31621.55221,1.96096,403.764,32.625,45.070,45.000,0.00,0.09,-272.75,-272.80,-3,520,-950,17.8,4.8,-22.8,18.0,4.9,-22.4,5.73,2.20,-10.9,24.3
2015-11-13 00:04:00,0.0,1.95710,0.00099,403.106,0.035,0.1255,0.0017,140.000,45.001,31621.46718,1.95944,403.715,32.625,45.070,45.000,0.00,0.09,-272.74,-272.80,-3,520,-950,17.8,4.8,-22.8,18.0,4.9,-22.5,5.73,1.87,-10.9,24.3
2015-11-13 00:05:00,0.0,1.96034,0.00125,403.163,0.028,0.1257,0.0018,140.002,45.001,31624.72326,1.96265,403.772,32.627,45.070,45.000,0.00,0.09,-272.73,-272.80,-4,519,-950,17.8,4.8,-22.8,18.0,4.9,-22.5,5.73,2.10,-10.9,24.3
2015-11-13 00:06:00,0.0,1.96193,0.00101,403.214,0.034,0.1254,0.0017,140.001,45.001,31625.31169,1.96444,403.825,32.629,45.070,45.000,0.00,0.09,-272.75,-272.80,-3,520,-949,17.8,4.8,-22.8,18.0,4.9,-22.5,5.73,2.07,-10.9,24.3
2015-11-13 00:07:00,0.0,1.96399,0.00163,403.264,0.051,0.1254,0.0015,139.999,45.001,31623.78695,1.96622,403.870,32.640,45.070,45.000,0.00,0.09,-272.73,-272.79,-4,520,-950,17.8,4.8,-22.8,18.0,4.9,-22.5,5.73,1.88,-10.9,24.2
2015-11-13 00:08:00,0.0,1.96298,0.00112,403.265,0.048,0.1254,0.0021,140.002,45.001,31626.16287,1.96550,403.877,32.661,45.070,45.000,0.00,0.09,-272.74,-272.79,-3,520,-950,17.8,4.8,-22.8,18.0,4.9,-22.5,5.73,2.21,-10.9,24.2
2015-11-13 00:09:00,0.0,1.96035,0.00139,403.177,0.043,0.1258,0.0016,139.996,45.001,31624.68558,1.96292,403.790,32.678,45.070,45.000,0.00,0.09,-272.74,-272.79,-4,520,-950,17.8,4.8,-22.8,18.0,4.9,-22.5,5.73,1.87,-10.9,24.2
2015-11-13 00:10:00,0.0,1.95723,0.00146,403.121,0.039,0.1257,0.0016,140.000,45.001,31625.71202,1.95964,403.731,32.654,45.070,45.000,0.00,0.09,-272.74,-272.79,-3,520,-950,17.8,4.8,-22.8,18.0,4.9,-22.5,5.73,2.10,-10.9,24.2
2015-11-13 00:11:00,0.0,1.95921,0.00348,403.167,0.085,0.1253,0.0012,140.000,45.001,31627.67828,1.96151,403.773,32.663,45.070,45.000,0.00,0.09,-272.74,-272.78,-4,520,-950,17.8,4.8,-22.8,18.0,4.9,-22.5,5.73,2.05,-10.9,24.2
2015-11-13 00:12:00,0.0,1.96029,0.00350,403.202,0.089,0.1252,0.0020,139.999,45.000,31626.47419,1.96292,403.811,32.650,45.070,45.000,0.00,0.09,-272.74,-272.79,-3,520,-950,17.8,4.8,-22.8,18.0,4.9,-22.5,5.73,1.91,-10.9,24.3
2015-11-13 00:13:00,0.0,1.95963,0.00309,403.182,0.059,0.1260,0.0017,140.000,45.000,31626.86533,1.96218,403.797,32.633,45.070,45.000,0.00,0.09,-272.74,-272.80,-4,520,-950,17.8,4.8,-22.8,18.0,4.9,-22.5,5.73,2.20,-10.9,24.3
2015-11-13 00:14:00,0.0,1.95468,0.00170,403.074,0.044,0.1253,0.0019,140.000,45.000,31626.61213,1.95710,403.682,32.636,45.070,45.000,0.00,0.09,-272.73,-272.79,-3,520,-950,17.8,4.8,-22.8,18.0,4.9,-22.5,5.73,1.86,-10.9,24.3
2015-11-13 00:15:00,0.0,1.95586,0.00140,403.120,0.048,0.1257,0.0016,139.998,45.000,31625.01460,1.95821,403.729,32.664,45.070,45.000,0.00,0.09,-272.74,-272.80,-4,520,-950,17.8,4.8,-22.8,18.0,4.9,-22.5,5.73,2.12,-10.9,24.3
2015-11-13 00:16:00,0.0,1.95600,0.00084,403.101,0.033,0.1250,0.0015,140.000,45.000,31625.66310,1.95843,403.709,32.668,45.070,45.000,0.00,0.09,-272.75,-272.80,-3,520,-950,17.8,4.8,-22.8,18.0,4.9,-22.5,5.73,2.04,-10.9,24.3
2015-11-13 00:17:00,0.0,1.95396,0.00116,403.046,0.045,0.1260,0.0018,139.997,45.000,31623.61585,1.95647,403.660,32.668,45.070,45.000,0.00,0.09,-272.73,-272.80,-3,520,-950,17.8,4.8,-22.8,18.0,4.9,-22.5,5.73,1.91,-10.9,24.3
2015-11-13 00:18:00,0.0,1.95380,0.00081,403.038,0.045,0.1253,0.0016,139.997,45.000,31624.50912,1.95615,403.646,32.661,45.070,45.000,0.00,0.09,-272.74,-272.79,-4,520,-950,17.8,4.8,-22.8,18.0,4.9,-22.5,5.73,2.20,-10.9,24.3
2015-11-13 00:19:00,0.0,1.95298,0.00111,403.029,0.036,0.1258,0.0015,139.998,45.000,31626.85165,1.95544,403.640,32.653,45.070,45.000,0.00,0.09,-272.73,-272.80,-3,520,-950,17.8,4.8,-22.8,18.0,4.9,-22.5,5.73,1.86,-10.9,24.3
2015-11-13 00:20:00,0.0,1.95341,0.00081,403.006,0.034,0.1268,0.0015,140.000,45.000,31626.60536,1.95584,403.622,32.645,45.070,45.000,0.00,0.09,-272.74,-272.80,-4,520,-950,17.8,4.8,-22.8,18.0,4.9,-22.5,5.73,2.12,-10.9,24.3
2015-11-13 00:21:00,0.0,1.95480,0.00156,403.062,0.044,0.1256,0.0017,139.999,45.000,31628.78031,1.95709,403.672,32.647,45.070,45.000,0.00,0.09,-272.74,-272.78,-3,520,-950,17.8,4.8,-22.8,18.0,4.9,-22.5,5.73,2.03,-10.9,24.3
2015-11-13 00:22:00,0.0,1.95502,0.00172,403.054,0.048,0.1260,0.0018,140.000,45.000,31626.79938,1.95755,403.666,32.629,45.070,45.000,0.00,0.09,-272.74,-272.80,-4,520,-950,17.8,4.8,-22.8,18.0,4.9,-22.5,5.73,1.92,-10.9,24.3
2015-11-13 00:23:00,0.0,1.95484,0.00058,403.022,0.037,0.1251,0.0016,139.999,45.000,31627.43692,1.95723,403.631,32.641,45.070,45.000,0.00,0.09,-272.74,-272.80,-3,520,-950,17.8,4.8,-22.8,18.0,4.9,-22.5,5.73,2.19,-10.9,24.3
2015-11-13 00:24:00,0.0,1.95607,0.00086,403.007,0.044,0.1255,0.0014,139.999,45.000,31627.52566,1.95846,403.617,32.667,45.070,45.000,0.00,0.09,-272.73,-272.79,-4,520,-950,17.8,4.8,-22.8,18.0,4.9,-22.5,5.73,1.85,-10.9,24.3
2015-11-13 00:25:00,0.0,1.95660,0.00076,403.033,0.031,0.1260,0.0015,139.996,45.000,31625.48805,1.95902,403.645,32.659,45.070,45.000,0.00,0.09,-272.73,-272.80,-3,520,-949,17.8,4.8,-22.8,18.0,4.9,-22.5,5.73,2.15,-10.9,24.3
2015-11-13 00:26:00,0.0,1.95572,0.00085,402.982,0.039,0.1261,0.0018,139.998,45.000,31625.53204,1.95823,403.596,32.684,45.070,45.000,0.00,0.09,-272.74,-272.80,-4,520,-950,17.8,4.8,-22.8,18.0,4.9,-22.5,5.73,2.00,-10.9,24.3
2015-11-13 00:27:00,0.0,1.95444,0.00076,402.969,0.026,0.1257,0.0020,139.998,45.000,31625.82652,1.95682,403.579,32.688,45.070,45.000,0.00,0.09,-272.74,-272.80,-3,519,-950,17.8,4.8,-22.8,18.0,4.9,-22.5,5.73,1.94,-10.9,24.3
2015-11-13 00:28:00,0.0,1.95610,0.00053,403.007,0.038,0.1260,0.0018,139.997,45.000,31623.41611,1.95849,403.619,32.688,45.070,45.000,0.00,0.09,-272.74,-272.79,-4,520,-950,17.8,4.8,-22.8,18.0,4.9,-22.5,5.73,2.19,-10.9,24.3
2015-11-13 00:29:00,0.0,1.95613,0.00071,402.974,0.037,0.1261,0.0015,140.002,45.000,31624.73139,1.95858,403.588,32.688,45.069,45.000,0.00,0.09,-272.74,-272.79,-3,519,-949,17.7,4.8,-22.8,18.0,4.9,-22.5,5.73,1.85,-10.9,24.3
2015-11-13 00:30:00,0.0,1.95465,0.00082,402.916,0.031,0.1260,0.0017,140.000,45.000,31625.63181,1.95714,403.528,32.688,45.070,45.000,0.00,0.09,-272.74,-272.80,-3,520,-950,17.7,4.8,-22.8,18.0,4.9,-22.5,5.73,2.15,-10.9,24.2
2015-11-13 00:31:00,0.0,1.95892,0.00263,403.083,0.071,0.1252,0.0018,139.999,45.000,31623.89171,1.96102,403.687,32.692,45.070,45.000,0.00,0.09,-272.74,-272.79,-4,519,-950,17.8,4.8,-22.8,18.0,4.9,-22.5,5.73,1.99,-10.9,24.2
2015-11-13 00:32:00,0.0,1.96453,0.00074,403.232,0.041,0.1259,0.0013,140.000,45.000,31624.49399,1.96699,403.842,32.705,45.070,45.000,0.00,0.09,-272.74,-272.79,-3,520,-949,17.8,4.8,-22.8,18.0,4.9,-22.5,5.73,1.96,-10.9,24.2
2015-11-13 00:33:00,0.0,1.96322,0.00055,403.250,0.033,0.1259,0.0015,139.998,45.000,31624.55395,1.96570,403.862,32.697,45.070,45.000,0.00,0.09,-272.75,-272.79,-4,520,-949,17.8,4.8,-22.8,18.0,4.9,-22.5,5.73,2.17,-10.9,24.3
2015-11-13 00:34:00,0.0,1.96302,0.00053,403.265,0.027,0.1260,0.0016,140.000,45.001,31623.92228,1.96543,403.877,32.702,45.070,45.000,0.00,0.09,-272.73,-272.79,-3,520,-950,17.8,4.8,-22.8,18.0,4.9,-22.5,5.73,1.85,-10.9,24.3
2015-11-13 00:35:00,0.0,1.96196,0.00061,403.261,0.039,0.1255,0.0014,139.999,45.000,31622.88133,1.96448,403.873,32.702,45.070,45.000,0.00,0.09,-272.73,-272.79,-4,520,-950,17.8,4.8,-22.8,18.0,4.9,-22.5,5.73,2.17,-10.9,24.3
2015-11-13 00:36:00,0.0,1.96007,0.00053,403.178,0.025,0.1260,0.0019,139.997,45.000,31623.83196,1.96251,403.790,32.689,45.070,45.000,0.00,0.09,-272.74,-272.79,-3,520,-950,17.8,4.8,-22.8,18.0,4.9,-22.5,5.73,1.96,-10.9,24.3
2015-11-13 00:37:00,0.0,1.95617,0.00255,403.067,0.098,0.1262,0.0020,140.002,45.000,31624.22808,1.95872,403.682,32.690,45.070,45.000,0.00,0.09,-272.73,-272.80,-4,520,-950,17.8,4.8,-22.8,18.0,4.8,-22.6,5.73,1.96,-10.9,24.3
2015-11-13 00:38:00,0.0,1.96028,0.00082,403.189,0.032,0.1253,0.0017,139.996,45.000,31622.65802,1.96261,403.797,32.692,45.070,45.000,0.00,0.09,-272.73,-272.79,-3,520,-950,17.8,4.8,-22.8,18.0,4.8,-22.6,5.73,2.17,-10.9,24.3
2015-11-13 00:39:00,0.0,1.95859,0.00106,403.143,0.041,0.1252,0.0014,140.003,45.000,31624.26335,1.96108,403.752,32.709,45.070,45.000,0.00,0.09,-272.73,-272.80,-4,520,-950,17.8,4.8,-22.8,18.0,4.9,-22.5,5.73,1.85,-10.9,24.3
2015-11-13 00:40:00,0.0,1.95448,0.00099,403.013,0.052,0.1258,0.0020,140.000,44.999,31622.24563,1.95702,403.625,32.722,45.070,45.000,0.00,0.09,-272.74,-272.80,-3,520,-950,17.8,4.8,-22.8,18.0,4.8,-22.6,5.73,2.16,-10.9,24.3
2015-11-13 00:41:00,0.0,1.95667,0.00123,403.086,0.042,0.1246,0.0017,140.000,45.000,31622.79614,1.95897,403.690,32.740,45.070,45.000,0.00,0.09,-272.74,-272.79,-4,520,-950,17.9,4.8,-22.8,18.0,4.8,-22.6,5.73,1.99,-10.9,24.3
2015-11-13 00:42:00,0.0,1.95440,0.00130,403.005,0.055,0.1252,0.0016,140.002,45.000,31626.21890,1.95693,403.615,32.744,45.070,45.000,0.00,0.09,-272.73,-272.80,-4,520,-949,17.8,4.8,-22.8,18.0,4.8,-22.6,5.73,1.96,-10.9,24.3
2015-11-13 00:43:00,0.0,1.95443,0.00094,402.999,0.056,0.1257,0.0020,140.001,45.000,31625.37267,1.95688,403.611,32.741,45.070,45.000,0.00,0.09,-272.75,-272.79,-3,520,-950,17.9,4.8,-22.8,18.0,4.8,-22.6,5.73,2.17,-10.9,24.3
2015-11-13 00:44:00,0.0,1.95309,0.00059,402.926,0.032,0.1257,0.0018,139.999,45.000,31624.88610,1.95548,403.537,32.742,45.070,45.000,0.00,0.09,-272.73,-272.79,-4,520,-950,17.9,4.8,-22.8,18.0,4.8,-22.6,5.73,1.84,-10.9,24.3
2015-11-13 00:45:00,0.0,1.95422,0.00051,402.970,0.042,0.1256,0.0015,140.000,45.000,31624.12060,1.95659,403.580,32.717,45.070,45.000,0.00,0.09,-272.74,-272.79,-3,520,-950,17.9,4.8,-22.8,18.0,4.8,-22.6,5.73,2.18,-10.9,24.3
2015-11-13 00:46:00,0.0,1.95500,0.00062,403.018,0.026,0.1252,0.0016,139.998,44.999,31621.31862,1.95746,403.626,32.706,45.070,45.000,0.00,0.09,-272.75,-272.79,-4,520,-950,17.9,4.8,-22.8,18.0,4.8,-22.6,5.73,1.95,-10.9,24.3
2015-11-13 00:47:00,0.0,1.95441,0.00050,403.001,0.027,0.1254,0.0014,140.002,45.000,31623.30633,1.95682,403.609,32.695,45.070,45.000,0.00,0.09,-272.74,-272.80,-3,520,-950,17.8,4.8,-22.8,18.0,4.8,-22.6,5.73,1.99,-10.9,24.3
2015-11-13 00:48:00,0.0,1.95261,0.00091,402.962,0.033,0.1249,0.0013,140.000,45.000,31620.42209,1.95506,403.571,32.691,45.070,45.000,0.00,0.09,-272.74,-272.79,-4,520,-950,17.9,4.8,-22.8,18.0,4.8,-22.6,5.73,2.15,-10.9,24.3
2015-11-13 00:49:00,0.0,1.95066,0.00067,402.884,0.037,0.1249,0.0020,139.999,45.000,31622.81801,1.95316,403.491,32.694,45.070,45.000,0.00,0.09,-272.73,-272.79,-3,520,-950,17.9,4.8,-22.8,18.0,4.8,-22.6,5.73,1.85,-10.9,24.3
2015-11-13 00:50:00,0.0,1.95075,0.00040,402.902,0.035,0.1255,0.0019,139.998,45.000,31623.90744,1.95313,403.511,32.713,45.070,45.000,0.00,0.09,-272.74,-272.80,-4,520,-950,17.8,4.8,-22.8,18.0,4.8,-22.6,5.73,2.18,-10.9,24.3
2015-11-13 00:51:00,0.0,1.95104,0.00037,402.893,0.040,0.1253,0.0022,139.998,45.001,31625.61760,1.95344,403.503,32.704,45.070,45.000,0.00,0.09,-272.74,-272.79,-3,520,-950,17.8,4.8,-22.8,18.0,4.8,-22.6,5.73,1.95,-10.9,24.3
2015-11-13 00:52:00,0.0,1.95093,0.00040,402.872,0.023,0.1254,0.0019,140.001,45.000,31625.19912,1.95334,403.479,32.713,45.070,45.000,0.00,0.09,-272.73,-272.80,-4,520,-950,17.8,4.8,-22.8,18.0,4.8,-22.6,5.73,1.99,-10.9,24.3
2015-11-13 00:53:00,0.0,1.95100,0.00044,402.897,0.020,0.1251,0.0012,140.000,45.000,31624.50139,1.95339,403.504,32.691,45.070,45.000,0.00,0.09,-272.74,-272.80,-3,520,-950,17.8,4.8,-22.9,18.0,4.8,-22.6,5.73,2.15,-10.9,24.3
2015-11-13 00:54:00,0.0,1.95192,0.00042,402.916,0.037,0.1256,0.0018,139.998,45.000,31624.17217,1.95431,403.525,32.692,45.070,45.000,0.00,0.09,-272.73,-272.80,-4,520,-950,17.8,4.8,-22.9,18.0,4.8,-22.6,5.73,1.85,-10.9,24.3
2015-11-13 00:55:00,0.0,1.95213,0.00032,402.939,0.039,0.1251,0.0017,139.998,45.000,31623.58657,1.95453,403.547,32.707,45.070,45.000,0.00,0.09,-272.73,-272.79,-4,520,-950,17.8,4.8,-22.8,18.0,4.8,-22.6,5.73,2.18,-10.9,24.3
2015-11-13 00:56:00,0.0,1.95257,0.00038,402.976,0.030,0.1249,0.0018,140.000,45.000,31624.42957,1.95495,403.583,32.749,45.070,45.000,0.00,0.09,-272.74,-272.80,-3,520,-950,17.8,4.8,-22.9,18.0,4.8,-22.6,5.73,1.93,-10.9,24.3
2015-11-13 00:57:00,0.0,1.95234,0.00049,402.911,0.046,0.1254,0.0017,139.998,45.000,31623.86548,1.95479,403.521,32.745,45.070,45.000,0.00,0.09,-272.74,-272.80,-4,520,-950,17.8,4.8,-22.9,18.0,4.8,-22.6,5.73,2.01,-10.9,24.3
2015-11-13 00:58:00,0.0,1.95168,0.00037,402.881,0.033,0.1249,0.0015,140.002,45.000,31623.20126,1.95408,403.487,32.748,45.069,45.000,0.00,0.09,-272.74,-272.78,-3,520,-949,17.8,4.8,-22.8,18.0,4.8,-22.6,5.73,2.14,-10.9,24.3
2015-11-13 00:59:00,0.0,1.95150,0.00040,402.900,0.033,0.1250,0.0013,140.003,45.000,31623.26170,1.95393,403.508,32.747,45.069,45.000,0.00,0.09,-272.74,-272.79,-4,520,-950,17.8,4.8,-22.9,18.0,4.8,-22.6,5.73,1.85,-10.9,24.3
2015-11-13 01:00:00,3.0,1.88474,0.02294,398.693,1.645,0.0273,0.0385,139.991,45.000,31518.66206,1.88782,398.928,32.732,45.069,45.000,0.00,0.09,-272.75,-272.80,-1,505,-950,17.8,4.8,-22.9,18.0,4.8,-22.6,5.73,2.09,-10.9,24.3
2015-11-13 01:01:00,3.0,1.87670,0.00035,397.392,0.039,0.0075,0.0018,139.998,45.000,31512.59308,1.87682,397.430,32.732,45.070,45.000,0.00,0.09,-272.74,-272.78,-3,505,-950,17.8,4.8,-22.9,18.0,4.8,-22.6,5.73,2.03,-10.9,24.3
2015-11-13 01:02:00,3.0,1.87656,0.00040,397.493,0.072,0.0073,0.0023,139.999,44.999,31508.13192,1.87671,397.524,32.719,45.070,45.000,0.00,0.09,-272.73,-272.79,-2,504,-950,17.8,4.8,-22.9,18.0,4.8,-22.6,5.73,1.85,-10.9,24.3
2015-11-13 01:03:00,3.0,1.87657,0.00034,397.601,0.032,0.0075,0.0016,140.001,45.000,31506.29798,1.87671,397.638,32.721,45.070,45.000,0.00,0.09,-272.74,-272.80,-2,504,-950,17.8,4.8,-22.9,18.0,4.8,-22.6,5.73,2.09,-10.9,24.3
2015-11-13 01:04:00,3.0,1.87667,0.00033,397.620,0.035,0.0050,0.0018,140.001,45.000,31504.66174,1.87674,397.643,32.691,45.070,45.000,0.00,0.09,-272.74,-272.80,-3,504,-950,17.8,4.8,-22.8,18.0,4.8,-22.6,5.73,2.07,-10.9,24.4
2015-11-13 01:05:00,3.0,1.87668,0.00040,397.618,0.027,0.0044,0.0015,140.001,45.001,31504.32947,1.87678,397.640,32.690,45.070,45.000,0.00,0.09,-272.73,-272.79,-2,505,-950,17.9,4.8,-22.8,18.1,4.8,-22.5,5.73,1.84,-10.9,24.4
2015-11-13 01:06:00,3.0,1.87649,0.00040,397.624,0.030,0.0038,0.0019,140.004,45.001,31506.53487,1.87658,397.640,32.689,45.070,45.000,0.00,0.09,-272.74,-272.80,-3,505,-950,17.9,4.8,-22.8,18.1,4.8,-22.5,5.73,2.10,-10.9,24.4
2015-11-13 01:07:00,3.0,1.87679,0.00034,397.639,0.029,0.0033,0.0024,140.000,45.001,31504.57204,1.87682,397.656,32.692,45.070,45.001,0.00,0.09,-272.74,-272.80,-3,505,-950,17.9,4.8,-22.8,18.1,4.8,-22.5,5.73,2.07,-10.9,24.4
2015-11-13 01:08:00,3.0,1.87665,0.00034,397.613,0.028,0.0024,0.0018,139.999,45.000,31505.99876,1.87672,397.626,32.690,45.070,45.000,0.00,0.09,-272.73,-272.80,-2,505,-950,18.0,4.8,-22.8,18.2,4.8,-22.5,5.73,1.84,-10.9,24.4
2015-11-13 01:09:00,3.0,1.87680,0.00025,397.628,0.030,0.0017,0.0022,140.002,45.000,31506.15507,1.87682,397.636,32.689,45.070,45.000,0.00,0.09,-272.74,-272.80,-3,505,-950,18.0,4.8,-22.8,18.2,4.8,-22.5,5.73,2.08,-10.9,24.5
2015-11-13 01:10:00,3.0,1.87647,0.00034,397.639,0.034,0.0014,0.0014,139.998,45.000,31506.37525,1.87651,397.644,32.687,45.070,45.000,0.00,0.09,-272.74,-272.80,-2,505,-950,18.1,4.7,-22.8,18.2,4.8,-22.5,5.73,2.07,-10.9,24.5
2015-11-13 01:11:00,3.0,1.87669,0.00030,397.627,0.027,0.0016,0.0019,139.999,45.001,31508.11354,1.87670,397.636,32.685,45.070,45.000,0.00,0.09,-272.73,-272.79,-2,505,-950,18.1,4.7,-22.8,18.2,4.8,-22.5,5.73,1.85,-10.9,24.5
2015-11-13 01:12:00,3.0,1.87673,0.00034,397.635,0.037,0.0003,0.0013,140.001,45.001,31509.36434,1.87675,397.636,32.684,45.070,45.000,0.00,0.09,-272.72,-272.79,-3,506,-950,18.1,4.7,-22.8,18.3,4.8,-22.4,5.73,2.06,-10.9,24.5
2015-11-13 01:13:00,3.0,1.87667,0.00048,397.639,0.031,0.0013,0.0016,140.000,45.000,31511.53748,1.87672,397.646,32.688,45.070,45.000,0.00,0.09,-272.75,-272.80,-2,506,-950,18.2,4.7,-22.8,18.3,4.8,-22.5,5.73,2.10,-10.9,24.5
2015-11-13 01:14:00,3.0,1.87657,0.00034,397.637,0.033,0.0019,0.0018,140.001,45.000,31512.38780,1.87659,397.645,32.688,45.070,45.000,0.00,0.09,-272.74,-272.79,-3,506,-950,18.2,4.7,-22.8,18.3,4.8,-22.5,5.73,1.85,-10.9,24.5
2015-11-13 01:15:00,3.0,1.87651,0.00038,397.632,0.029,0.0016,0.0018,139.997,44.999,31512.92453,1.87651,397.640,32.688,45.070,45.000,0.00,0.09,-272.73,-272.79,-2,506,-950,18.2,4.7,-22.8,18.3,4.8,-22.5,5.73,2.04,-10.9,24.5
2015-11-13 01:16:00,3.0,1.87683,0.00039,397.634,0.030,-0.0001,0.0021,140.001,44.999,31512.82986,1.87685,397.633,32.689,45.070,45.000,0.00,0.09,-272.74,-272.79,-2,506,-950,18.2,4.7,-22.8,18.4,4.8,-22.5,5.73,2.11,-10.9,24.5
2015-11-13 01:17:00,3.0,1.87680,0.00039,397.637,0.040,0.0007,0.0027,139.999,45.000,31513.87351,1.87680,397.640,32.687,45.070,45.000,0.00,0.09,-272.74,-272.80,-3,506,-950,18.3,4.7,-22.8,18.4,4.7,-22.5,5.73,1.85,-10.9,24.6
2015-11-13 01:18:00,3.0,1.87668,0.00037,397.644,0.028,0.0003,0.0022,140.001,45.000,31516.07489,1.87669,397.646,32.689,45.070,45.000,0.00,0.09,-272.73,-272.79,-2,506,-950,18.3,4.7,-22.8,18.4,4.7,-22.5,5.73,2.03,-10.9,24.6
2015-11-13 01:19:00,3.0,1.87707,0.00031,397.652,0.030,0.0008,0.0024,139.999,45.000,31515.79814,1.87709,397.655,32.697,45.070,45.000,0.00,0.09,-272.74,-272.78,-3,507,-950,18.4,4.6,-22.8,18.4,4.8,-22.5,5.73,2.12,-10.9,24.6
2015-11-13 01:20:00,3.0,1.87689,0.00029,397.647,0.033,-0.0001,0.0018,140.000,45.000,31517.41491,1.87689,397.646,32.705,45.070,45.000,0.00,0.09,-272.74,-272.80,-3,507,-950,18.4,4.6,-22.8,18.5,4.7,-22.5,5.73,1.86,-10.9,24.6
2015-11-13 01:21:00,3.0,1.87690,0.00036,397.668,0.034,0.0001,0.0020,139.995,45.000,31518.01677,1.87688,397.668,32.708,45.070,45.000,0.00,0.09,-272.74,-272.80,-2,507,-950,18.4,4.6,-22.7,18.5,4.7,-22.5,5.73,2.02,-10.9,24.6
2015-11-13 01:22:00,3.0,1.87708,0.00038,397.672,0.026,0.0004,0.0010,139.998,45.000,31517.00958,1.87708,397.675,32.739,45.070,45.000,0.00,0.09,-272.73,-272.80,-4,507,-950,18.5,4.6,-22.8,18.5,4.7,-22.5,5.73,2.12,-10.8,24.7
2015-11-13 01:23:00,3.0,1.87685,0.00036,397.657,0.036,-0.0001,0.0020,140.000,45.000,31521.59986,1.87687,397.657,32.743,45.070,45.000,0.00,0.09,-272.73,-272.80,-2,507,-950,18.5,4.6,-22.8,18.6,4.7,-22.5,5.73,1.86,-10.8,24.7
2015-11-13 01:24:00,3.0,1.87683,0.00039,397.640,0.032,-0.0001,0.0016,139.999,45.000,31524.11739,1.87683,397.640,32.750,45.070,45.000,0.00,0.09,-272.74,-272.80,-3,508,-950,18.5,4.6,-22.8,18.6,4.7,-22.5,5.73,1.98,-10.8,24.7
2015-11-13 01:25:00,2.0,1.85162,0.01132,390.995,2.892,0.0047,0.0035,140.042,45.000,32100.57535,1.85267,391.145,32.752,45.070,45.000,0.00,0.09,-272.73,-272.79,-4,596,-949,18.5,4.6,-22.8,18.6,4.7,-22.5,5.73,2.19,-10.8,24.7
2015-11-13 01:26:00,2.0,1.84677,0.00042,389.670,0.025,0.0040,0.0020,140.001,45.000,32156.50621,1.84687,389.689,32.750,45.069,45.000,0.00,0.09,-272.74,-272.80,-2,598,-949,18.6,4.6,-22.8,18.7,4.7,-22.5,5.73,1.89,-10.9,24.7
2015-11-13 01:27:00,2.0,1.84650,0.00038,389.660,0.032,0.0049,0.0026,139.999,45.000,32171.73478,1.84657,389.683,32.750,45.069,45.000,0.00,0.09,-272.74,-272.80,-4,599,-949,18.6,4.6,-22.8,18.7,4.7,-22.5,5.73,1.94,-10.8,24.7
2015-11-13 01:28:00,2.0,1.84681,0.00042,389.683,0.030,0.0042,0.0019,140.000,45.001,32182.09496,1.84687,389.702,32.749,45.070,45.000,0.00,0.09,-272.74,-272.79,-3,599,-949,18.7,4.6,-22.7,18.7,4.7,-22.5,5.73,2.15,-10.8,24.7
2015-11-13 01:29:00,2.0,1.84690,0.00032,389.661,0.030,0.0033,0.0014,139.999,45.000,32191.85513,1.84698,389.677,32.748,45.070,45.000,0.00,0.09,-272.73,-272.78,-2,599,-949,18.7,4.6,-22.7,18.7,4.7,-22.5,5.73,1.92,-10.8,24.8
2015-11-13 01:30:00,2.0,1.84650,0.00035,389.647,0.026,0.0022,0.0016,139.999,45.000,32199.25759,1.84654,389.657,32.750,45.070,45.000,0.00,0.09,-272.74,-272.79,-4,600,-949,18.7,4.6,-22.7,18.8,4.7,-22.4,5.73,1.91,-10.8,24.8
2015-11-13 01:31:00,2.0,1.84644,0.00035,389.653,0.028,0.0011,0.0022,139.999,45.000,32205.25778,1.84646,389.659,32.749,45.070,45.000,0.00,0.09,-272.74,-272.79,-2,600,-949,18.7,4.6,-22.7,18.8,4.7,-22.4,5.73,2.14,-10.8,24.8
2015-11-13 01:32:00,2.0,1.84672,0.00045,389.660,0.028,0.0021,0.0022,139.999,45.000,32209.81890,1.84675,389.668,32.749,45.070,45.000,0.00,0.09,-272.73,-272.79,-3,600,-949,18.8,4.6,-22.7,18.8,4.7,-22.4,5.73,1.94,-10.8,24.8
2015-11-13 01:33:00,2.0,1.84640,0.00030,389.655,0.037,0.0009,0.0015,140.000,45.000,32215.40397,1.84644,389.661,32.750,45.070,45.000,0.00,0.09,-272.74,-272.80,-4,600,-949,18.8,4.6,-22.7,18.9,4.7,-22.4,5.73,1.89,-10.8,24.8
2015-11-13 01:34:00,2.0,1.84652,0.00033,389.669,0.030,0.0008,0.0016,140.000,45.000,32218.32240,1.84654,389.671,32.751,45.070,45.000,0.00,0.09,-272.74,-272.79,-2,600,-949,18.8,4.6,-22.7,18.9,4.7,-22.4,5.73,2.14,-10.8,24.9
2015-11-13 01:35:00,2.0,1.84644,0.00039,389.647,0.035,0.0009,0.0019,140.000,45.000,32220.82176,1.84644,389.653,32.750,45.070,45.000,0.00,0.09,-272.73,-272.79,-4,600,-949,18.9,4.6,-22.7,18.9,4.7,-22.3,5.73,1.98,-10.8,24.9
2015-11-13 01:36:00,2.0,1.84666,0.00037,389.650,0.029,0.0007,0.0015,139.998,45.000,32221.84691,1.84667,389.652,32.751,45.070,45.000,0.00,0.09,-272.73,-272.80,-3,600,-949,18.9,4.6,-22.6,18.9,4.6,-22.4,5.73,1.86,-10.8,24.9
2015-11-13 01:37:00,2.0,1.84671,0.00030,389.681,0.032,0.0003,0.0014,140.000,45.000,32224.26697,1.84671,389.682,32.755,45.070,45.000,0.00,0.09,-272.74,-272.80,-3,600,-949,18.9,4.5,-22.7,19.0,4.6,-22.4,5.73,2.11,-10.8,24.9
2015-11-13 01:38:00,2.0,1.84667,0.00042,389.687,0.029,0.0009,0.0012,140.000,45.000,32225.19502,1.84672,389.690,32.751,45.070,45.000,0.00,0.09,-272.74,-272.79,-4,600,-949,19.0,4.5,-22.6,19.0,4.6,-22.3,5.73,2.03,-10.8,24.9
2015-11-13 01:39:00,2.0,1.84664,0.00038,389.672,0.028,-0.0002,0.0013,139.999,45.000,32226.54592,1.84661,389.673,32.751,45.070,45.000,0.00,0.09,-272.73,-272.79,-3,600,-949,19.1,4.5,-22.6,19.1,4.6,-22.3,5.73,1.84,-10.8,24.9
2015-11-13 01:40:00,2.0,1.84672,0.00035,389.669,0.032,-0.0000,0.0020,139.999,45.000,32229.16322,1.84669,389.669,32.749,45.070,45.000,0.00,0.09,-272.74,-272.80,-3,600,-949,19.1,4.5,-22.6,19.1,4.6,-22.3,5.73,2.07,-10.8,25.0
2015-11-13 01:41:00,2.0,1.84665,0.00038,389.670,0.034,-0.0008,0.0017,139.999,45.000,32231.68708,1.84666,389.666,32.749,45.070,45.000,0.00,0.09,-272.74,-272.79,-4,600,-949,19.1,4.5,-22.6,19.1,4.6,-22.3,5.73,2.07,-10.8,25.0
2015-11-13 01:42:00,2.0,1.84652,0.00028,389.655,0.030,-0.0006,0.0018,139.999,45.000,32233.73287,1.84650,389.652,32.745,45.070,45.000,0.00,0.09,-272.73,-272.79,-3,600,-949,19.2,4.5,-22.6,19.1,4.6,-22.3,5.73,1.84,-10.8,25.0
2015-11-13 01:43:00,2.0,1.84659,0.00033,389.667,0.033,0.0000,0.0020,139.998,45.000,32234.34097,1.84658,389.666,32.741,45.070,45.000,0.00,0.09,-272.73,-272.80,-4,600,-949,19.2,4.5,-22.6,19.2,4.6,-22.4,5.73,2.02,-10.8,25.0
2015-11-13 01:44:00,2.0,1.84640,0.00041,389.658,0.026,0.0000,0.0018,139.995,45.000,32237.21272,1.84640,389.660,32.744,45.070,45.000,0.00,0.09,-272.73,-272.80,-3,600,-949,19.2,4.5,-22.6,19.2,4.6,-22.4,5.73,2.11,-10.8,25.0
2015-11-13 01:45:00,2.0,1.84661,0.00027,389.670,0.032,0.0000,0.0019,140.000,45.000,32236.49402,1.84662,389.669,32.745,45.070,45.000,0.00,0.09,-272.73,-272.79,-3,600,-949,19.2,4.5,-22.6,19.2,4.6,-22.4,5.73,1.86,-10.8,25.1